Temperature
20 19 19 18 18 18 17 17 17 16 16 16 16 16 16 15 15 15 15 15 15 15 15 15 14 14 14 14 14 14 14 14 14 14 14 14 14 14 14 14 14 14 14
20 19 19 18 18 18 17 17 17 16 16 16 16 16 15 15 15 15 15 15 15 15 15 14 14 14 14 14 14 14 14 14 14 14 14 14 14 14 14 14 14 14 14
20 19 19 18 18 17 17 17 16 16 16 16 16 16 15 15 15 15 15 15 15 15 14 14 14 14 14 14 14 14 14 14 14 14 14 14 14 14 14 14 14 14 14
20 19 19 18 17 17 17 17 16 16 16 16 16 15 15 15 15 15 15 15 15 14 14 14 14 14 14 14 14 13 13 14 13 14 14 14 14 14 13 13 13 13 13
20 19 19 18 18 17 17 17 16 16 16 16 16 15 15 15 15 15 15 15 15 14 14 14 14 14 14 14 13 13 13 13 13 13 13 14 14 14 13 13 13 13 13
20 20 19 18 17 17 17 17 16 16 16 16 16 15 15 15 15 15 15 15 14 14 14 14 14 14 14 13 13 13 13 13 13 13 13 13 13 13 13 13 13 13 13
20 20 19 18 17 17 17 16 16 16 16 16 15 15 15 15 15 15 15 14 14 14 14 14 14 14 14 13 13 13 13 13 13 13 13 13 13 13 13 13 13 13 13
20 20 19 18 17 17 17 16 16 16 16 15 15 15 15 15 15 14 14 14 14 14 14 14 14 14 13 13 13 13 13 13 13 13 13 13 13 13 13 13 13 13 12
20 19 19 18 17 17 17 16 16 16 16 15 15 15 15 15 14 14 14 14 14 14 14 14 14 14 13 13 13 13 13 13 13 13 13 13 13 12 13 13 13 13 12
20 20 19 18 17 17 16 16 16 16 15 15 15 15 15 15 14 14 14 14 14 14 14 13 13 13 13 13 13 13 13 13 13 13 13 13 12 12 12 12 12 12 12
20 20 19 18 17 17 16 16 16 16 15 15 15 15 15 14 14 14 14 14 14 14 14 13 13 13 13 13 13 13 13 13 12 12 12 12 12 12 12 12 12 12 12
20 19 19 18 17 17 16 16 16 16 15 15 15 15 14 14 14 14 14 14 14 13 13 13 13 13 13 13 13 13 13 12 12 12 12 12 12 12 12 12 12 12 12
19 19 18 18 17 17 16 16 16 16 15 15 15 14 14 14 14 14 13 13 13 13 13 13 13 13 13 13 13 12 12 12 12 12 12 12 12 12 12 12 12 12 11
19 18 18 18 17 17 16 16 16 15 15 15 15 14 14 14 14 14 13 13 13 13 13 13 13 13 13 12 12 12 12 12 12 12 12 12 12 12 12 12 11 11 11
18 17 17 17 17 16 16 16 15 15 15 14 14 14 14 14 14 13 13 13 13 13 13 12 12 12 12 12 12 12 12 12 12 12 12 12 12 12 11 11 11 11 11
17 17 16 16 16 16 16 15 15 15 15 14 14 14 14 13 13 13 13 13 13 12 12 12 12 12 12 12 12 12 12 12 11 11 11 11 11 11 11 11 11 11 11
17 16 16 16 16 15 15 15 15 15 14 14 14 14 13 13 13 13 12 12 12 12 12 12 11 11 11 11 11 11 11 11 11 11 11 11 11 11 11 11 11 10 10
16 15 15 15 15 15 15 15 14 14 14 14 13 13 13 13 13 12 12 12 12 12 11 11 11 11 11 11 11 11 11 11 10 10 10 10 10 10 10 10 10 10 10
15 15 15 15 15 15 15 14 14 14 13 13 13 13 13 12 12 12 12 11 11 11 11 11 11 11 10 10 10 10 10 10 10 10 10 10 10 10 10 10 10 10 10
14 14 15 15 14 14 14 14 14 13 13 13 13 12 12 12 12 12 11 11 11 11 10 10 10 10 10 10 10 10 10 10 9 9 9 9 9 9 9 9 9 9 9
14 14 14 14 14 14 14 13 13 13 13 12 12 12 12 11 11 11 11 11 10 10 10 10 10 10 10 9 9 9 9 9 9 9 9 9 9 9 9 9 9 9 9
13 13 13 13 13 13 13 13 13 13 12 12 12 11 11 11 11 11 10 10 10 10 10 10 9 9 9 9 9 9 9 9 9 8 8 9 9 9 9 8 8 8 8
13 13 13 13 12 12 12 12 12 12 12 12 11 11 11 11 10 10 10 10 10 9 9 9 9 9 9 9 9 9 9 8 8 8 8 8 8 8 8 8 8 8 8
12 12 12 12 12 12 12 12 11 11 11 11 11 11 10 10 10 10 9 9 9 9 9 9 9 9 9 9 9 9 8 8 8 8 8 8 8 8 8 8 7 7 7
12 12 11 11 11 11 11 11 11 11 11 10 10 10 10 10 9 9 9 9 9 9 9 8 8 8 8 8 8 8 8 8 8 8 8 7 7 7 7 7 7 7 7
11 11 11 11 11 11 11 11 10 10 10 10 10 9 9 9 9 9 8 8 8 8 8 8 8 8 8 8 8 8 8 7 7 7 7 7 7 7 7 6 6 6 6
Wind_Speed
9 7 6 6 5 5 6 5 5 4 4 3 3 2 2 2 2 2 4 5 5 5 4 4 4 4 3 3 3 3 3 2 2 2 2 2 2 3 3 3 3 4 5
10 9 8 6 5 5 6 5 5 4 5 3 2 2 2 2 3 2 4 4 4 5 4 4 3 4 3 3 4 3 2 2 2 1 1 1 2 3 2 2 3 3 4
8 10 9 8 6 5 6 6 5 5 5 4 2 2 3 2 2 2 2 2 3 4 4 4 3 3 2 2 2 2 3 2 3 2 2 2 1 1 2 2 2 3 3
8 9 8 8 7 5 5 5 5 5 4 4 3 3 3 2 2 2 2 1 2 3 4 3 3 2 3 2 1 2 1 2 2 3 3 1 1 1 1 2 2 2 2
8 10 9 8 7 6 5 5 5 5 4 4 3 2 2 1 1 2 2 2 1 2 3 2 1 2 2 1 2 3 2 2 1 1 2 2 2 1 2 1 0 1 1
7 9 9 8 7 7 6 5 5 4 4 4 4 3 3 2 2 2 1 1 1 1 2 2 1 1 1 1 2 2 1 1 1 1 1 1 1 1 1 1 1 0 0
8 8 10 9 7 7 7 6 6 5 5 4 4 4 3 3 2 2 2 1 1 1 1 1 0 0 1 1 2 1 1 1 1 0 1 1 1 1 1 1 0 0 0
9 9 9 9 8 8 7 7 6 5 4 4 3 3 3 2 2 2 2 2 1 2 1 2 1 1 0 1 2 1 1 1 1 0 0 1 1 1 1 1 1 1 1
8 9 9 9 9 8 7 7 7 6 5 4 3 2 3 3 2 2 2 2 1 1 1 1 1 2 1 1 2 1 1 1 0 1 1 1 0 1 1 0 1 2 0
7 8 8 8 8 8 6 6 6 6 5 5 3 2 2 2 2 2 2 2 1 1 1 1 2 1 2 1 1 1 0 1 1 1 0 0 1 1 0 1 0 1 1
4 6 7 8 7 7 7 7 6 5 5 5 4 3 2 2 2 2 1 1 1 1 1 1 1 2 2 2 2 1 0 1 1 1 1 0 0 1 0 0 0 0 1
3 4 6 7 7 8 7 7 6 6 5 4 4 3 3 3 2 2 2 1 1 1 1 2 1 1 1 1 2 2 1 1 1 2 2 2 1 1 0 0 0 1 1
2 3 4 5 6 6 7 6 6 6 5 5 4 3 3 3 3 2 2 1 1 1 1 1 1 1 1 1 1 2 1 2 2 1 1 1 1 1 1 1 0 1 1
2 2 2 3 4 5 5 5 5 5 6 5 5 4 3 4 3 2 2 1 1 1 1 1 1 1 1 1 1 0 1 1 1 1 1 1 1 1 1 1 1 1 1
2 2 1 2 3 4 4 5 5 5 6 6 5 4 3 3 3 3 2 2 1 1 1 1 1 1 1 1 1 0 1 1 2 1 2 1 2 2 1 1 1 1 2
2 2 1 2 2 3 4 5 5 5 5 5 4 4 3 3 3 3 3 2 2 2 2 1 1 1 1 1 1 1 1 2 1 1 1 2 2 2 3 3 2 2 2
3 2 2 1 1 2 3 4 4 5 4 5 5 4 3 3 3 3 2 3 2 2 1 1 1 1 2 2 0 1 1 1 1 0 0 1 1 2 2 1 1 1 0
2 1 1 0 1 0 1 3 4 4 5 4 4 3 3 3 3 3 3 3 2 2 2 2 2 2 2 2 1 2 2 2 1 1 1 1 1 1 1 2 1 1 0
2 2 1 1 0 0 0 2 3 3 4 4 4 4 4 3 3 4 3 2 1 2 2 2 3 2 2 3 2 1 2 2 1 1 0 1 1 2 2 1 1 1 1
2 2 2 2 1 0 1 2 3 3 4 4 4 4 4 4 4 4 3 2 2 2 2 2 2 3 2 3 3 2 2 2 1 0 0 1 1 2 1 1 1 1 1
3 3 2 2 1 1 0 1 2 2 3 3 4 3 4 4 4 3 3 2 2 2 3 3 2 2 3 4 4 3 2 2 1 1 1 1 2 1 1 0 1 1 1
3 2 2 1 2 1 1 1 1 1 2 2 3 3 4 4 3 4 3 3 3 3 3 3 2 2 2 4 4 5 4 2 1 1 1 1 2 1 0 0 1 1 1
2 2 2 1 2 1 1 1 1 1 1 2 2 3 3 4 4 4 3 3 3 3 3 2 2 2 1 2 3 4 4 3 2 1 1 2 2 2 1 2 2 1 1
2 2 2 1 2 2 1 1 1 0 1 2 2 3 3 3 3 3 3 3 3 3 3 3 2 2 2 1 2 2 2 2 2 1 1 2 3 2 2 2 2 2 2
2 2 2 2 3 2 2 1 1 1 2 2 2 2 2 3 2 2 2 3 3 4 4 3 3 3 3 3 3 2 2 2 2 2 1 1 1 2 2 2 2 2 2
3 3 2 2 2 2 2 1 1 1 2 2 2 2 2 2 2 2 1 1 3 4 5 5 5 3 4 4 3 4 3 3 3 2 2 3 3 3 3 3 2 2 2
Wind_Direction
160 151 146 137 130 123 120 120 122 120 109 96 93 92 92 90 76 58 60 59 60 71 76 69 64 63 61 64 67 59 45 39 44 52 53 57 84 97 84 67 69 70 79
160 156 151 143 145 139 132 129 123 116 107 100 106 115 109 107 106 79 63 53 61 67 80 85 80 74 58 45 52 50 26 17 38 61 66 55 27 43 88 96 80 70 76
160 160 159 154 152 148 146 144 143 134 126 121 108 99 86 76 84 91 75 45 59 68 63 79 85 98 91 77 59 53 46 17 3 34 66 91 79 25 17 78 89 89 84
162 157 157 158 156 150 145 145 141 135 130 130 124 130 126 119 132 130 125 114 77 84 71 68 88 108 103 107 108 84 51 50 15 5 14 55 126 126 40 15 54 88 100
165 161 161 159 158 150 150 152 140 137 139 137 136 136 122 133 121 111 132 132 107 95 93 74 65 83 97 103 77 77 53 57 50 21 5 4 352 26 130 126 53 33 66
163 164 158 151 149 148 148 145 139 143 142 147 153 153 142 144 134 134 127 123 123 98 98 97 81 88 117 124 109 108 99 75 50 11 27 31 20 3 69 112 143 116 349
166 160 154 154 153 155 153 153 151 150 150 163 167 162 162 170 172 162 157 152 135 113 147 111 114 87 148 141 124 133 144 141 115 14 8 4 0 38 49 77 66 91 156
164 160 158 159 160 163 163 165 163 158 157 170 179 170 162 163 178 166 153 168 156 155 176 168 164 153 137 117 123 131 195 147 144 155 86 33 6 27 58 93 83 43 19
158 159 163 164 166 169 173 172 167 164 165 177 191 178 161 158 170 170 158 155 171 179 190 181 182 167 163 142 121 146 221 143 156 148 114 104 60 30 14 42 131 132 121
163 160 161 166 169 169 173 170 170 169 165 173 181 175 158 155 149 146 164 166 187 199 197 206 201 176 160 157 138 161 211 137 132 103 53 74 123 87 5 328 6 104 140
160 162 160 161 169 172 175 177 176 171 167 171 174 165 164 158 145 144 148 171 201 204 214 234 190 173 166 168 149 155 143 200 209 194 168 196 106 119 167 321 349 34 116
143 150 155 160 171 177 179 179 176 173 167 169 170 163 156 144 155 167 172 188 181 198 235 234 190 185 166 165 154 181 195 210 249 229 185 196 169 142 154 117 234 205 170
117 123 149 162 169 175 179 176 172 169 163 159 161 165 159 161 168 164 163 183 186 196 244 229 172 173 171 194 193 191 197 198 227 233 194 200 157 173 176 165 213 236 165
105 96 125 158 161 169 173 170 171 166 163 160 167 184 182 177 174 164 157 191 218 181 203 234 180 159 171 139 104 116 228 224 222 184 145 142 158 184 189 181 209 188 127
93 102 132 153 161 166 172 171 172 166 165 167 173 181 182 179 172 163 164 180 201 221 210 216 201 199 165 103 68 24 293 266 244 194 157 130 102 112 135 148 175 159 150
61 62 117 151 168 179 177 172 167 166 165 168 167 162 173 174 167 169 166 173 197 218 202 198 179 190 161 100 83 21 279 257 240 218 180 164 135 100 86 87 80 105 161
53 30 6 71 184 187 180 169 166 160 164 169 164 167 168 167 165 170 172 184 194 202 181 190 177 171 139 126 100 335 311 273 212 197 240 258 176 150 145 126 86 45 18
15 12 339 313 280 193 154 164 155 158 164 161 160 166 168 173 168 165 180 191 190 181 190 204 196 185 195 189 221 292 270 283 246 184 213 196 132 140 120 136 139 154 269
10 342 327 285 187 94 134 152 154 163 166 163 167 172 173 172 171 175 185 182 180 192 206 201 195 203 208 197 208 226 245 259 251 231 256 147 132 85 81 106 142 156 266
24 352 355 2 53 107 174 161 166 173 178 174 177 179 176 180 190 190 188 185 197 208 210 225 209 200 193 180 194 213 231 240 236 180 117 101 124 110 90 159 154 200 247
21 13 10 10 16 19 44 182 177 187 184 176 176 181 189 194 193 186 184 193 204 206 215 224 225 211 186 179 189 199 220 239 227 204 190 175 142 132 119 50 234 251 266
15 8 8 13 351 359 219 204 203 196 161 164 184 193 193 200 193 175 188 198 200 211 222 221 222 222 197 173 191 203 223 248 228 222 192 174 173 179 179 241 270 302 318
4 0 356 337 328 333 289 239 249 165 153 175 200 202 194 191 187 184 192 203 201 207 218 214 219 233 216 176 188 206 227 248 241 238 189 183 192 188 217 245 249 266 245
345 332 318 291 291 298 286 235 269 192 179 202 210 206 197 198 190 184 191 198 202 207 211 213 225 228 206 185 185 195 216 237 233 234 236 230 211 219 240 265 252 234 227
327 311 301 294 289 290 282 273 227 203 216 219 211 215 200 186 187 186 203 205 206 197 202 212 216 213 225 224 205 199 209 219 221 213 211 219 213 209 220 232 230 223 229
300 292 288 290 282 278 272 252 224 206 219 226 217 210 193 188 184 179 227 230 213 212 213 219 222 233 224 227 217 214 224 229 222 202 208 221 221 221 221 222 226 225 229
Height
1506 1508 1510 1512 1514 1515 1516 1518 1519 1520 1521 1522 1523 1524 1524 1525 1525 1526 1526 1526 1526 1527 1527 1527 1527 1527 1527 1526 1526 1527 1527 1528 1528 1528 1528 1529 1530 1530 1530 1530 1530 1530 1530
1503 1506 1509 1511 1513 1514 1516 1517 1519 1520 1521 1522 1523 1524 1525 1526 1526 1526 1527 1527 1527 1527 1527 1527 1527 1527 1527 1527 1527 1527 1528 1528 1529 1529 1529 1530 1531 1531 1531 1531 1531 1531 1531
1500 1503 1506 1509 1511 1513 1514 1516 1518 1519 1520 1521 1522 1524 1525 1525 1526 1526 1527 1527 1527 1528 1528 1528 1528 1528 1528 1528 1528 1528 1528 1529 1529 1530 1530 1531 1531 1532 1532 1532 1532 1532 1532
1498 1501 1504 1507 1509 1511 1513 1515 1516 1518 1519 1521 1522 1523 1524 1525 1526 1526 1527 1527 1528 1528 1528 1528 1528 1528 1528 1528 1529 1529 1529 1529 1529 1530 1531 1531 1531 1532 1532 1533 1533 1533 1533
1496 1499 1502 1505 1508 1509 1511 1513 1515 1517 1518 1520 1521 1522 1523 1524 1525 1526 1526 1527 1527 1528 1528 1528 1528 1529 1529 1529 1529 1529 1529 1529 1530 1530 1531 1531 1531 1532 1532 1533 1533 1533 1533
1495 1497 1500 1503 1506 1508 1510 1512 1514 1516 1517 1519 1520 1521 1522 1523 1524 1525 1526 1526 1527 1527 1527 1528 1528 1528 1529 1529 1529 1529 1529 1529 1530 1530 1530 1531 1531 1531 1532 1532 1532 1533 1533
1493 1496 1499 1501 1504 1506 1508 1511 1513 1514 1516 1518 1519 1520 1521 1522 1523 1524 1524 1525 1526 1526 1526 1527 1527 1528 1528 1528 1529 1529 1529 1529 1529 1530 1530 1530 1531 1531 1531 1532 1532 1532 1533
1490 1493 1496 1499 1502 1504 1507 1509 1511 1513 1514 1516 1518 1519 1520 1521 1521 1522 1523 1524 1524 1525 1525 1526 1526 1527 1527 1528 1528 1528 1528 1529 1529 1529 1529 1530 1530 1530 1531 1531 1531 1531 1532
1488 1491 1494 1497 1500 1502 1505 1507 1509 1511 1513 1514 1516 1518 1519 1519 1520 1521 1522 1522 1523 1524 1524 1525 1525 1526 1526 1527 1527 1527 1527 1528 1528 1528 1528 1529 1529 1529 1530 1530 1531 1532 1531
1487 1489 1492 1495 1497 1500 1503 1505 1507 1509 1511 1512 1514 1515 1517 1517 1518 1519 1520 1520 1521 1522 1522 1523 1524 1524 1525 1525 1526 1526 1526 1526 1527 1527 1527 1527 1528 1528 1528 1529 1529 1530 1530
1485 1488 1490 1493 1495 1498 1501 1503 1506 1507 1509 1510 1512 1513 1514 1515 1516 1517 1518 1519 1519 1520 1520 1521 1522 1523 1523 1523 1524 1524 1525 1525 1525 1526 1526 1526 1526 1526 1527 1527 1528 1528 1529
1484 1486 1489 1491 1494 1496 1498 1501 1503 1505 1506 1508 1510 1511 1512 1513 1514 1515 1515 1516 1517 1518 1518 1519 1520 1520 1521 1522 1522 1522 1523 1523 1523 1524 1524 1524 1524 1525 1525 1525 1526 1526 1526
1483 1485 1487 1489 1491 1494 1496 1498 1500 1502 1504 1505 1507 1508 1509 1511 1512 1512 1513 1514 1515 1515 1516 1517 1517 1518 1519 1519 1520 1520 1520 1521 1521 1522 1522 1522 1522 1522 1523 1523 1523 1524 1524
1482 1484 1485 1487 1489 1491 1493 1495 1497 1499 1501 1502 1504 1506 1507 1508 1509 1510 1511 1512 1512 1513 1513 1514 1515 1515 1516 1516 1517 1517 1518 1518 1519 1519 1520 1520 1520 1520 1520 1520 1521 1521 1522
1482 1483 1484 1485 1487 1489 1491 1492 1495 1496 1498 1500 1501 1503 1504 1505 1506 1507 1508 1509 1510 1510 1511 1512 1512 1512 1513 1513 1514 1514 1515 1516 1516 1517 1517 1517 1517 1517 1518 1518 1518 1519 1519
1481 1482 1483 1484 1486 1487 1488 1490 1492 1494 1495 1497 1498 1500 1501 1502 1503 1504 1505 1506 1507 1508 1508 1508 1509 1509 1510 1510 1511 1511 1512 1512 1513 1513 1513 1514 1514 1514 1515 1515 1515 1516 1516
1481 1482 1482 1483 1484 1485 1486 1487 1489 1490 1492 1494 1495 1496 1498 1499 1500 1501 1502 1503 1504 1505 1505 1506 1506 1506 1507 1507 1508 1508 1509 1509 1510 1510 1510 1510 1510 1511 1511 1512 1512 1513 1513
1480 1481 1481 1482 1482 1483 1484 1485 1486 1488 1489 1491 1492 1493 1495 1496 1497 1498 1499 1500 1500 1501 1502 1503 1503 1503 1503 1504 1504 1505 1506 1506 1506 1507 1507 1507 1507 1508 1508 1508 1509 1509 1510
1479 1479 1480 1480 1481 1481 1482 1483 1484 1486 1487 1488 1489 1490 1491 1492 1493 1494 1495 1496 1497 1498 1499 1500 1500 1500 1500 1501 1501 1502 1502 1502 1503 1503 1504 1504 1504 1505 1505 1505 1505 1506 1506
1478 1478 1478 1478 1478 1479 1480 1481 1482 1483 1484 1485 1486 1487 1488 1489 1490 1491 1492 1493 1494 1495 1496 1496 1497 1497 1497 1497 1498 1498 1498 1499 1499 1500 1500 1501 1501 1501 1502 1502 1502 1502 1503
1476 1476 1476 1477 1477 1477 1478 1479 1479 1480 1481 1482 1483 1484 1485 1486 1487 1488 1489 1490 1491 1492 1492 1493 1493 1494 1494 1494 1495 1495 1495 1495 1495 1496 1496 1497 1498 1498 1499 1499 1499 1499 1500
1475 1475 1475 1475 1475 1475 1475 1475 1477 1478 1479 1479 1480 1481 1482 1483 1484 1485 1485 1486 1487 1488 1489 1489 1489 1490 1490 1491 1491 1491 1492 1492 1492 1492 1493 1494 1495 1495 1495 1495 1496 1496 1496
1474 1473 1473 1473 1474 1474 1474 1474 1475 1475 1476 1476 1477 1478 1478 1479 1480 1481 1482 1482 1483 1484 1484 1485 1485 1486 1487 1487 1488 1488 1489 1489 1489 1489 1490 1491 1491 1491 1491 1492 1492 1492 1492
1472 1472 1471 1471 1472 1472 1472 1472 1472 1472 1473 1473 1474 1475 1475 1476 1477 1478 1478 1479 1479 1480 1481 1481 1482 1482 1482 1483 1484 1484 1485 1485 1486 1486 1486 1487 1487 1488 1488 1488 1488 1488 1488
1470 1470 1469 1469 1469 1469 1469 1469 1469 1469 1470 1470 1471 1471 1472 1473 1473 1474 1475 1475 1476 1476 1477 1477 1478 1478 1478 1479 1480 1480 1481 1481 1482 1482 1482 1483 1483 1483 1483 1483 1484 1484 1484
1468 1468 1467 1467 1466 1466 1466 1466 1466 1466 1466 1467 1467 1468 1468 1469 1470 1470 1471 1472 1473 1473 1474 1474 1475 1475 1475 1476 1476 1477 1477 1478 1478 1478 1478 1478 1478 1479 1479 1479 1479 1480 1480